Regional Weather Roundup
Issued by NWS

Home | Current Version | Previous Version | Text Only | Print | Product List | Glossary Off
Versions: 1 2 3 4 5 6 7 8 9 10 11 12 13 14 15 16 17 18 19 20 21 22 23 24 25 26 27 28 29 30 31 32 33 34 35 36 37 38 39 40 41 42 43 44 45 46 47 48 49 50

000
ASUS45 KBOU 261007
RWRCO

WEATHER ROUNDUP FOR COLORADO
NATIONAL WEATHER SERVICE DENVER/BOULDER CO
400 AM MDT TUE MAY 26 2015

NOTE: "FAIR" INDICATES FEW OR NO CLOUDS BELOW 12000 FEET WITH NO
SIGNIFICANT WEATHER AND/OR OBSTRUCTIONS TO VISIBILITY.

COZ001>005-013-030-031-261100-
...NORTHWEST COLORADO...

CITY           SKY/WX    TMP DP  RH WIND       PRES   REMARKS
CRAIG          CLEAR     38  36  92 CALM      30.08R
HAYDEN         MOCLDY    43  37  81 E7        30.09R
MEEKER         MOCLDY    41  38  89 NE5       30.08S
MOUNT WERNER   NOT AVBL
STEAMBOAT SPGS PTCLDY    39  37  94 CALM      30.10S
WALDEN         CLOUDY    36  32  87 W3        30.08R
$$

COZ006>008-011-261100-
...WEST CENTRAL VALLEYS...

CITY           SKY/WX    TMP DP  RH WIND       PRES   REMARKS
GRAND JUNCTION CLOUDY    51  46  83 SE7       30.03R
MONTROSE       CLEAR     44  39  82 SE5       30.09S
EAGLE          CLOUDY    45  43  93 CALM      30.13S
RIFLE          PTCLDY    44  42  93 CALM      30.08R
DELTA          PTCLDY    48  43  84 MISG      30.07S
NUCLA          CLEAR     43  37  81 E3        30.12S
$$

COZ017>023-064>068-261100-
...SOUTHWEST COLORADO...

CITY           SKY/WX    TMP DP  RH WIND       PRES   REMARKS
DURANGO        CLEAR     35  34  96 E5        30.12R WCI  31
CORTEZ         CLEAR     40  38  93 NE5       30.09S
PAGOSA SPRINGS CLEAR     37  37 100 CALM      30.16S
TELLURIDE      PTCLDY    37  35  93 SE3       30.22R
WOLF CREEK PAS NOT AVBL
$$

COZ009-010-012-014-032>034-037-058>063-261100-
...CENTRAL COLORADO...

CITY           SKY/WX    TMP DP  RH WIND       PRES   REMARKS
ASPEN          CLOUDY    40  38  93 CALM      30.14R
BUENA VISTA    CLOUDY    41  35  79 CALM      30.12S
COPPER MTN     FOG       34  30  86 W13       30.26R VSB 1/4 WCI  25
BERTHOUD PASS  HAZE      25  18  74 NW13G18   30.26R VSB 1/4 WCI  13
COTTONWOOD PAS PTCLDY    41  32  70 W6        30.19R
GUNNISON       MOCLDY    39  34  81 N3        30.17S
KREMMLING      CLOUDY    41  36  81 CALM      30.14S
LEADVILLE      MIX PCPN  33  33 100 NE6       30.18S WCI  28
MONARCH PASS   CLOUDY    30  28  93 MISG      30.36S
SALIDA         PTCLDY    40  36  84 CALM      30.19S
SUNLIGHT       MOCLDY    34  34 100 CALM      30.26S
WILKERSON PASS PTCLDY    32  28  86 W6        30.24S WCI  26
$$

COZ069>075-261100-
...SAN LUIS VALLEY/SANGRE DE CRISTO MOUNTAINS...

CITY           SKY/WX    TMP DP  RH WIND       PRES   REMARKS
ALAMOSA        CLEAR     36  32  85 SW3       30.12S
LA VETA PASS   CLEAR    N/A N/A N/A MISG      30.18S
SAGUACHE       CLEAR     37  34  87 NW7       30.14S
$$

COZ035-036-038>040-261100-
...NORTHERN COLORADO FRONT RANGE...

CITY           SKY/WX    TMP DP  RH WIND       PRES   REMARKS
DENVER INTL AP MOCLDY    47  43  86 SW6       30.00S
DMNS CITY PARK   N/A     46  44  92 S3        30.01R
AURORA         PTCLDY    46  43  90 S8        30.02S
FRONT RANGE AP PTCLDY    48  45  87 SW6       30.02R
ERIE MUNI ARPT PTCLDY    43  43  99 CALM      30.00S
BOULDER MUN AP PTCLDY    45  43  93 S5        30.00S
CENTENNIAL     PTCLDY    43  42  97 E7        30.02S
BROOMFIELD     PTCLDY    46  41  81 W3        30.02R
FORT COLLINS   PTCLDY    45  43  93 N5        30.01S
LONGMONT       PTCLDY    46  43  90 CALM      30.02S
$$

COZ041-046-047-076>085-087-088-261100-
...PIKES PEAK/PALMER DIVIDE AND SOUTHERN FOOTHILLS...

CITY           SKY/WX    TMP DP  RH WIND       PRES   REMARKS
COLO. SPRINGS  CLEAR     44  40  85 W3        30.04R
A. F. ACADEMY  CLEAR     39  38  99 N8        30.04S
ELLICOTT       NOT AVBL
FALCON         CLEAR     43  38  82 NW3       30.07R
FORT CARSON    NOT AVBL
LIMON          MOCLDY    47  43  86 NW9       30.01R
MONUMENT HILL  NOT AVBL
TRINIDAD       CLEAR     42  39  89 W8        30.04S
$$

COZ042>045-048>051-090-091-261100-
...NORTHEAST COLORADO...

CITY           SKY/WX    TMP DP  RH WIND       PRES   REMARKS
GREELEY ARPT   PTCLDY    45  43  93 CALM      30.00R
AKRON          PTCLDY    47  46  97 NW7       29.98R
BURLINGTON     CLEAR     46  42  86 W7        29.95S
WRAY           MOCLDY    48  48 100 NW6       29.94S
STERLING       CLOUDY    46  46 100 CALM      29.96R
HOLYOKE        NOT AVBL
FORT MORGAN    PTCLDY    46  43  90 W5        29.99S
$$

COZ086-089-092>099-261100-
...SOUTHEAST COLORADO...

CITY           SKY/WX    TMP DP  RH WIND       PRES   REMARKS
PUEBLO         CLEAR     46  43  89 W6        29.99S
LA JUNTA       CLEAR     51  47  86 SW10      29.98R
LAMAR          MOCLDY    50  48  93 SW5       29.95R
SPRINGFIELD      N/A     48  46  93 NW5       29.97S
$$



USA.gov is the U.S. government's official web portal to all federal, state and local government web resources and services.